EHI
0 0 0 0 0 0 0 0 0 0 0 0 0 0 0 0 0 0 0 0 0 0 0 0 0 0 0 0 0 0 0 0 0 0 0 0 0 0 0 0 0 0 0
0 0 0 0 0 0 0 0 0 0 0 0 0 0 0 0 0 0 0 0 0 0 0 0 0 0 0 0 0 0 0 0 0 0 0 0 0 0 0 0 0 0 0
0 0 0 0 0 0 0 0 0 0 0 0 0 0 0 0 0 0 0 0 0 0 0 0 0 0 0 0 0 0 0 0 0 0 0 0 0 0 0 0 0 0 0
0 0 0 0 0 0 0 0 0 0 0 0 0 0 0 0 0 0 0 0 0 0 0 0 0 0 0 0 0 0 0 0 0 0 0 0 0 0 0 0 0 0 0
0 0 0 0 0 0 0 0 0 0 0 0 0 0 0 0 0 0 0 0 0 0 0 0 0 0 0 0 0 0 0 0 0 0 0 0 0 0 0 0 0 0 0
0 0 0 0 0 0 0 0 0 0 0 0 0 0 0 0 0 0 0 0 0 0 0 0 0 0 0 0 0 0 0 0 0 0 0 0 0 0 0 0 0 0 0
0 0 0 0 0 0 0 0 0 0 0 0 0 0 0 0 0 0 0 0 0 0 0 0 0 0 0 0 0 0 0 0 0 0 0 0 0 0 0 0 0 0 0
0 0 0 0 0 0 0 0 0 0 0 0 0 0 0 0 0 0 0 0 0 0 0 0 0 0 0 0 0 0 0 0 0 0 0 0 0 0 0 0 0 0 0
0 0 0 0 0 0 0 0 0 0 0 0 0 0 0 0 0 0 0 0 0 0 0 0 0 0 0 0 0 0 0 0 0 0 0 0 0 0 0 0 0 0 0
0 0 0 0 0 0 0 0 0 0 0 0 0 0 0 0 0 0 0 0 0 0 0 0 0 0 0 0 0 0 0 0 0 0 0 0 0 0 0 0 0 0 0
0 0 0 0 0 0 0 0 0 0 0 0 0 0 0 0 0 0 0 0 0 0 0 0 0 0 0 0 0 0 0 0 0 0 0 1 0 0 0 0 0 0 0
0 0 0 0 0 0 0 0 0 0 0 0 0 0 0 0 0 0 0 0 0 0 0 0 0 0 0 0 0 0 0 0 0 0 0 0 0 0 0 0 0 0 0
0 0 0 0 0 0 0 0 0 0 0 0 0 0 0 0 0 0 0 0 0 0 0 0 0 0 0 0 0 0 0 0 0 0 0 0 0 0 0 0 0 0 0
0 0 0 0 0 0 0 0 0 0 0 0 0 0 0 0 0 0 0 0 0 0 0 0 0 0 0 0 0 0 0 0 0 0 0 0 0 0 0 0 0 0 0
0 0 0 0 0 0 0 0 0 0 0 0 0 0 0 0 0 0 0 0 0 0 0 0 0 0 0 0 0 0 0 0 0 0 0 0 0 0 0 0 0 0 0
0 0 0 0 0 0 0 0 0 0 0 0 0 0 0 0 0 0 0 0 0 0 0 0 0 0 0 0 0 0 0 0 0 0 0 0 0 0 0 0 0 0 0
0 0 0 0 0 0 0 0 0 0 0 0 0 0 0 0 0 0 0 0 0 0 0 0 0 0 0 0 0 0 0 0 0 0 0 0 0 0 0 0 0 0 0
0 0 0 0 0 0 0 0 0 0 0 0 0 0 0 0 0 0 0 0 0 0 0 0 0 0 0 0 0 0 0 0 0 0 0 0 0 0 0 0 0 0 0
0 0 0 0 0 0 0 0 0 0 0 0 0 0 0 0 0 0 0 0 0 0 0 0 0 0 0 0 0 0 0 0 0 0 0 0 0 0 0 0 0 0 0
0 0 0 0 0 0 0 0 0 0 0 0 0 0 0 0 0 0 0 0 0 0 0 0 0 0 0 0 0 0 0 0 0 0 0 0 0 0 0 0 0 0 0
0 0 0 0 0 0 0 0 0 0 0 0 0 0 0 0 0 0 0 0 0 0 0 0 0 0 0 0 0 0 0 0 0 0 0 0 0 0 0 0 0 0 0
0 0 0 0 0 0 0 0 0 0 0 0 0 0 0 0 0 0 0 0 0 0 0 0 0 0 0 0 0 0 0 0 0 0 0 0 0 0 0 0 0 0 0
0 0 0 0 0 0 0 0 0 0 0 0 0 0 0 0 0 0 0 0 0 0 0 0 0 0 0 0 0 0 0 0 0 0 0 0 0 0 0 0 0 0 0
0 0 0 0 0 0 0 0 0 0 0 0 0 0 0 0 0 0 0 0 0 0 0 0 0 0 0 0 0 0 0 0 0 0 0 0 0 0 0 0 0 0 0
0 0 0 0 0 0 0 0 0 0 0 0 0 0 0 0 0 0 0 0 0 0 0 0 0 0 0 0 0 0 0 0 0 0 0 0 0 0 0 0 0 0 0
0 0 0 0 0 0 0 0 0 0 0 0 0 0 0 0 0 0 0 0 0 0 0 0 0 0 0 0 0 0 0 0 0 0 0 0 0 0 0 0 0 0 0
Wind_Speed
3 3 2 2 2 2 2 2 2 2 2 1 2 2 3 3 4 3 3 7 9 9 9 8 8 7 7 6 5 5 4 3 3 3 3 2 3 3 3 4 4 5 5
4 3 3 3 3 3 3 3 3 2 2 2 3 3 4 4 4 4 4 5 9 10 11 11 10 10 9 9 8 7 6 6 5 4 4 3 2 2 2 2 2 3 3
5 4 4 4 4 3 3 2 3 2 2 2 4 4 4 4 4 5 5 4 5 8 12 14 13 12 12 11 10 10 9 8 7 6 5 5 4 3 3 2 1 1 1
6 5 4 5 4 3 3 3 3 3 3 3 3 4 3 3 5 5 5 5 4 4 8 14 14 14 14 14 13 12 11 10 9 8 7 6 6 5 4 4 3 2 1
7 6 5 5 5 4 4 4 4 3 4 4 4 4 4 4 5 4 5 6 6 6 5 9 12 13 13 15 15 14 13 12 11 10 9 8 8 7 7 6 5 4 4
7 7 5 5 5 4 4 5 5 5 4 4 3 4 4 4 4 5 6 6 6 7 6 6 6 8 12 15 16 16 15 15 14 13 11 10 10 9 8 8 7 6 6
6 6 5 5 5 6 7 7 5 5 5 3 2 3 4 4 5 5 5 4 6 6 5 6 5 4 5 12 15 17 17 16 15 15 14 13 12 10 10 9 9 8 7
4 4 5 5 5 5 6 6 5 3 3 4 4 2 3 3 4 4 3 4 5 3 5 6 5 6 5 4 7 13 15 17 16 16 15 14 13 12 11 10 9 9 8
3 3 4 4 5 5 5 6 7 7 5 4 5 4 3 4 3 2 2 3 3 3 4 4 5 6 5 4 4 8 11 13 16 16 16 15 14 13 13 12 11 10 9
2 2 3 3 4 4 5 6 6 6 5 5 4 5 5 3 3 3 2 1 2 3 3 3 3 4 4 4 5 8 9 12 15 16 17 16 15 15 14 13 11 10 8
0 1 1 2 3 3 4 4 4 5 5 5 4 3 4 3 4 4 5 2 1 1 1 2 2 2 2 3 3 6 10 13 16 17 17 17 15 13 12 11 9 7 5
0 1 1 1 2 2 3 3 4 5 5 5 4 4 4 3 4 5 6 4 3 2 1 1 1 1 1 2 3 6 9 11 13 14 14 13 12 11 10 10 9 7 5
1 2 2 1 1 2 2 2 2 3 3 4 4 4 4 4 3 3 4 3 2 1 1 1 1 2 2 1 2 3 5 7 9 10 11 9 8 7 7 7 6 5 4
0 1 2 2 2 2 1 1 0 1 1 1 2 2 2 1 1 2 2 2 2 2 1 1 1 2 2 2 2 2 2 4 5 6 6 5 4 3 2 2 3 3 4
1 2 2 2 3 3 2 2 2 2 1 2 2 2 1 2 2 1 0 1 2 2 2 0 1 3 3 2 3 2 2 3 3 3 3 2 2 1 2 2 3 4 5
3 3 4 4 4 4 4 3 3 3 4 4 3 4 4 3 3 3 2 1 0 1 1 1 2 3 3 3 4 4 3 4 5 4 3 2 2 2 2 3 5 6 8
4 4 4 4 5 5 4 5 5 5 5 5 5 5 6 5 4 4 3 3 3 1 1 2 2 3 3 4 4 3 3 3 3 6 5 4 3 3 4 5 7 8 8
5 5 4 5 5 5 5 5 6 6 6 7 6 6 6 5 6 5 4 4 3 3 2 2 2 2 3 3 3 3 3 3 3 5 5 5 4 4 5 6 7 7 8
5 5 5 6 6 6 6 6 7 7 8 7 7 7 6 6 6 5 5 4 3 3 3 3 2 2 2 2 3 3 3 3 3 4 5 6 6 6 6 7 8 8 8
5 5 6 6 6 6 6 6 7 8 8 8 7 7 6 6 5 5 4 4 4 4 4 3 3 2 2 2 2 2 2 3 3 3 4 5 6 8 8 9 9 9 9
5 5 5 5 5 5 5 6 6 7 7 7 7 6 6 7 8 6 4 3 4 3 3 3 2 2 2 2 2 2 2 2 2 2 2 2 3 3 4 6 8 9 10
5 5 5 5 5 5 10 11 8 6 6 7 6 6 6 7 9 10 10 8 6 4 2 2 2 2 1 1 1 1 1 2 3 2 2 3 2 3 3 3 7 10 11
5 6 5 5 5 7 11 11 11 7 6 5 5 4 4 5 7 5 8 10 9 9 6 3 2 1 0 1 0 1 1 1 2 3 2 3 2 3 3 4 11 11 10
4 4 5 5 5 7 11 11 12 7 6 5 4 4 3 3 3 4 4 4 4 4 4 2 2 1 2 2 2 2 2 2 3 2 1 3 3 3 3 4 9 7 5
4 4 4 4 4 5 9 10 9 4 4 4 3 3 2 2 3 5 4 3 3 3 4 5 3 2 3 2 0 1 0 1 2 2 0 1 3 3 3 3 4 7 7
4 4 4 4 3 2 5 8 8 3 3 2 2 2 3 2 3 4 3 2 1 1 1 2 3 4 4 4 5 1 1 1 1 3 1 1 2 3 5 3 2 3 5
Wind_Direction
176 177 182 184 186 176 180 190 206 224 242 252 244 236 239 236 237 234 244 248 245 240 233 225 216 215 212 209 205 199 195 190 180 169 161 148 131 118 108 98 89 82 78
182 185 193 198 202 199 198 200 213 227 244 249 261 253 249 242 236 233 231 244 243 239 235 233 228 223 221 218 215 210 209 211 207 203 198 192 182 171 151 126 107 92 83
190 191 197 207 212 202 200 204 220 226 246 247 257 256 250 243 238 234 229 228 237 239 235 235 235 230 227 226 224 218 215 217 218 218 216 213 212 211 208 194 174 137 99
194 192 200 214 211 198 197 205 211 222 239 243 253 256 251 247 243 238 231 227 226 231 235 237 238 236 231 230 230 226 219 218 220 222 224 225 223 224 224 225 228 232 241
198 197 207 214 203 201 207 215 211 207 229 238 245 252 249 245 244 239 234 230 226 225 226 236 238 238 235 233 235 234 227 219 218 220 224 228 230 232 234 234 235 242 248
201 201 209 212 199 203 211 213 221 215 222 232 246 257 252 246 240 235 236 234 229 229 227 231 236 240 236 234 235 237 233 225 218 217 221 226 230 233 238 242 241 243 249
201 203 210 206 201 211 217 212 212 220 228 203 221 276 271 244 240 239 234 234 236 232 228 229 230 234 241 237 236 238 238 234 225 220 220 223 227 230 237 243 246 247 251
201 205 209 209 206 214 219 215 207 208 216 181 186 220 287 302 266 243 231 234 241 235 234 233 229 229 232 236 240 238 239 239 236 229 223 223 225 229 234 241 246 249 252
204 207 212 214 212 212 222 220 212 213 225 209 197 197 219 244 284 288 247 243 244 237 242 239 234 234 230 229 239 242 239 239 241 240 233 227 228 229 233 236 241 247 253
207 214 219 220 220 218 225 226 217 217 219 226 210 220 227 214 234 283 281 269 251 246 247 247 247 243 235 233 233 237 238 239 242 244 242 233 231 231 233 234 238 243 251
229 247 237 233 234 231 233 231 225 220 219 224 212 203 223 231 228 245 268 266 281 264 263 258 255 254 247 241 241 239 239 241 245 248 247 240 237 235 235 235 239 242 241
329 342 305 262 250 248 248 245 236 228 227 227 222 207 199 202 208 219 245 245 250 257 282 299 298 294 294 276 263 253 245 245 250 254 256 252 248 245 243 241 242 244 247
339 334 337 315 287 271 264 256 243 243 232 230 230 227 222 227 211 207 233 248 241 255 329 360 356 346 349 347 310 283 261 253 252 255 258 260 261 259 255 251 255 267 276
316 346 2 9 3 359 343 323 258 272 259 237 240 232 223 229 215 209 212 222 252 247 254 287 22 15 4 357 344 331 302 277 265 260 264 274 287 304 325 295 289 303 302
28 29 34 36 27 25 25 42 55 40 55 57 52 62 70 46 47 35 221 204 218 242 247 345 26 14 3 6 7 18 13 332 303 289 294 307 333 1 342 309 297 292 290
45 49 47 46 41 36 40 57 59 53 70 59 56 69 65 52 51 44 41 35 74 202 206 81 48 18 6 13 28 34 28 29 17 7 348 320 308 306 298 286 279 280 280
52 55 55 57 52 47 47 65 66 64 72 66 60 68 63 56 58 44 42 44 40 51 149 85 57 29 27 27 24 31 36 34 16 6 356 350 335 313 298 289 284 283 284
58 59 61 64 61 57 56 68 73 69 73 72 67 70 65 65 63 52 53 53 46 39 93 110 65 35 34 29 30 32 30 32 20 8 3 357 342 325 308 297 291 290 288
69 65 67 69 67 66 67 70 79 79 76 74 73 75 72 77 71 61 58 55 45 45 59 100 83 45 36 28 32 28 28 16 6 4 1 359 351 340 330 318 308 302 295
79 76 76 75 73 72 73 78 84 85 82 75 71 72 72 78 83 76 65 58 60 60 61 78 77 54 40 23 37 22 11 4 356 1 359 354 346 340 328 317 308 300 292
85 83 84 83 85 84 83 87 86 88 87 80 69 62 67 81 94 91 86 76 72 68 65 67 63 49 31 26 23 4 8 342 341 358 338 324 322 314 314 312 306 294 284
85 83 79 80 81 87 98 98 96 87 86 84 76 62 59 58 67 71 76 77 82 86 85 83 73 73 29 7 4 12 9 11 335 334 337 300 292 288 286 275 291 291 284
93 86 77 76 79 91 97 100 98 92 86 82 79 72 64 64 65 60 62 56 52 61 81 123 118 130 213 236 81 355 339 271 264 287 331 296 310 292 286 293 304 297 289
100 93 83 78 80 94 101 103 102 90 84 78 76 80 80 61 87 91 78 61 45 37 57 88 140 198 226 226 200 196 223 267 276 276 213 282 311 293 296 301 309 305 305
108 97 90 85 82 91 107 111 107 95 87 75 66 70 80 47 71 90 88 71 47 15 27 50 57 45 13 358 122 123 18 352 314 303 329 279 306 307 300 301 313 327 330
120 110 97 87 86 80 113 119 118 110 104 92 65 40 33 41 49 87 116 108 64 326 358 16 25 24 23 15 31 85 162 170 263 293 302 297 305 334 318 296 286 293 302